EI4HQ Weather Reports


Display with metric or nautical units.
time (UTC)temp
F
wind
direction
speed
MPH
gust
MPH
rain 1hr
in
rain 24hr
in
rain mn
in
humidity
%
barometer
mb
20260510112703 56 2 12.0 22.0 0.00 0.00 0.00 56 1021.2
20260510111803 56 2 10.0 19.0 0.00 0.00 0.00 57 1021.2
20260510110903 56 7 10.0 19.0 0.00 0.00 0.00 56 1021.3
20260510110003 56 1 10.0 20.0 0.00 0.00 0.00 60 1021.3
20260510105403 55 3 10.0 20.0 0.00 0.00 0.00 59 1021.4
20260510104503 55 6 10.0 21.0 0.00 0.00 0.00 60 1021.4
20260510103603 55 7 10.0 21.0 0.00 0.00 0.00 61 1021.5
20260510102703 54 6 11.0 20.0 0.00 0.00 0.00 62 1021.6
20260510101803 54 13 9.0 19.0 0.00 0.00 0.00 61 1021.6
20260510100903 54 7 8.0 15.0 0.00 0.00 0.00 65 1021.7
20260510100003 54 4 8.0 17.0 0.00 0.00 0.00 64 1021.7
20260510095403 54 6 8.0 15.0 0.00 0.00 0.00 65 1021.8
20260510094503 53 1 9.0 17.0 0.00 0.00 0.00 68 1021.8
20260510093603 52 2 9.0 17.0 0.00 0.00 0.00 68 1021.9
20260510092703 52 2 9.0 17.0 0.00 0.00 0.00 67 1022.0
20260510091803 52 3 9.0 19.0 0.00 0.00 0.00 68 1022.1
20260510090903 51 356 10.0 19.0 0.00 0.00 0.00 68 1022.1
20260510090003 51 356 9.0 17.0 0.00 0.00 0.00 68 1022.3
20260510085403 51 359 8.0 17.0 0.00 0.00 0.00 69 1022.3
20260510084503 50 358 9.0 20.0 0.00 0.00 0.00 69 1022.4
20260510083603 49 358 8.0 16.0 0.00 0.00 0.00 70 1022.5
20260510082703 49 356 7.0 13.0 0.00 0.00 0.00 71 1022.4
20260510081803 48 360 9.0 16.0 0.00 0.00 0.00 71 1022.3
20260510080903 47 1 8.0 14.0 0.00 0.00 0.00 72 1022.4
20260510080003 47 357 9.0 17.0 0.00 0.00 0.00 72 1022.3
20260510075403 46 3 9.0 16.0 0.00 0.00 0.00 73 1022.3
20260510074503 46 360 9.0 16.0 0.00 0.00 0.00 73 1022.3
20260510073603 46 356 9.0 20.0 0.00 0.00 0.00 73 1022.3
20260510072703 45 2 9.0 17.0 0.00 0.00 0.00 74 1022.2
20260510071803 45 360 9.0 18.0 0.00 0.00 0.00 74 1022.2
20260510070903 44 356 10.0 20.0 0.00 0.00 0.00 75 1022.1
20260510070003 44 352 12.0 20.0 0.00 0.00 0.00 75 1022.1
20260510065403 44 355 12.0 20.0 0.00 0.00 0.00 75 1022.0
20260510064503 43 354 13.0 22.0 0.00 0.00 0.00 75 1021.9
20260510063603 43 354 13.0 23.0 0.00 0.00 0.00 76 1021.9
20260510062703 42 353 11.0 20.0 0.00 0.00 0.00 77 1021.8
20260510061803 42 351 11.0 20.0 0.00 0.00 0.00 77 1021.8
20260510060903 42 347 12.0 21.0 0.00 0.00 0.00 77 1021.7
20260510060003 42 349 12.0 19.0 0.00 0.00 0.00 77 1021.7
20260510055403 41 350 11.0 19.0 0.00 0.00 0.00 77 1021.7
20260510054503 41 353 12.0 20.0 0.00 0.00 0.00 77 1021.7
20260510053603 41 352 12.0 20.0 0.00 0.00 0.00 77 1021.7
20260510052703 41 353 13.0 22.0 0.00 0.00 0.00 77 1021.7
20260510051803 41 354 13.0 22.0 0.00 0.00 0.00 77 1021.8
20260510050903 41 355 12.0 20.0 0.00 0.00 0.00 77 1021.7
20260510050003 41 353 11.0 19.0 0.00 0.00 0.00 76 1021.8
20260510045403 41 352 12.0 21.0 0.00 0.00 0.00 76 1021.8
20260510044503 41 350 13.0 23.0 0.00 0.00 0.00 76 1021.7
20260510043603 41 349 14.0 22.0 0.00 0.00 0.00 75 1021.7
20260510042703 41 350 13.0 23.0 0.00 0.00 0.00 75 1021.8
20260510041803 41 352 12.0 22.0 0.00 0.00 0.00 75 1021.9
20260510040903 41 350 11.0 17.0 0.00 0.00 0.00 75 1021.8
20260510040003 41 350 10.0 16.0 0.00 0.00 0.00 74 1022.1
20260510035403 41 352 10.0 20.0 0.00 0.00 0.00 74 1022.0
20260510034503 41 349 10.0 18.0 0.00 0.00 0.00 74 1022.2
20260510033603 42 348 12.0 19.0 0.00 0.00 0.00 73 1022.1
20260510032703 42 348 11.0 19.0 0.00 0.00 0.00 73 1022.1
20260510031803 42 353 9.0 14.0 0.00 0.00 0.00 73 1022.2
20260510030903 42 352 9.0 19.0 0.00 0.00 0.00 73 1022.2
20260510030003 42 353 9.0 19.0 0.00 0.00 0.00 73 1022.3
20260510025403 42 355 9.0 19.0 0.00 0.00 0.00 72 1022.4
20260510024503 42 356 8.0 15.0 0.00 0.00 0.00 72 1022.5
20260510023603 42 352 10.0 18.0 0.00 0.00 0.00 72 1022.5
20260510022703 43 353 11.0 20.0 0.00 0.00 0.00 72 1022.5
20260510021803 43 352 11.0 20.0 0.00 0.00 0.00 71 1022.5
20260510020903 43 350 13.0 21.0 0.00 0.00 0.00 71 1022.5
20260510020003 44 358 11.0 19.0 0.00 0.00 0.00 71 1022.6
20260510015403 44 359 11.0 19.0 0.00 0.00 0.00 71 1022.5
20260510014503 44 357 11.0 19.0 0.00 0.00 0.00 70 1022.6
20260510013603 44 355 11.0 20.0 0.00 0.00 0.00 70 1022.6
20260510012703 44 358 10.0 18.0 0.00 0.00 0.00 69 1022.7
20260510011803 44 356 9.0 18.0 0.00 0.00 0.00 69 1022.8
20260510010903 44 358 9.0 16.0 0.00 0.00 0.00 68 1022.9
20260510010003 44 357 9.0 16.0 0.00 0.00 0.00 68 1022.9
20260510005403 45 355 10.0 16.0 0.00 0.00 0.00 68 1022.9
20260510004503 45 355 9.0 16.0 0.00 0.00 0.00 68 1023.0
20260510003603 45 356 7.0 16.0 0.00 0.00 0.00 68 1023.0
20260510002703 45 356 8.0 13.0 0.00 0.00 0.00 67 1023.0
20260510001803 46 359 8.0 14.0 0.00 0.00 0.00 67 1022.9
20260510000903 46 358 7.0 14.0 0.00 0.00 0.00 67 1023.0
20260510000003 46 358 7.0 14.0 0.00 0.00 0.00 67 1023.0
20260509235403 46 358 7.0 14.0 0.00 0.00 0.00 67 1023.0
20260509234503 47 359 7.0 14.0 0.00 0.00 0.00 66 1022.9
20260509233603 47 1 7.0 14.0 0.00 0.00 0.00 66 1023.0
20260509232703 47 359 7.0 13.0 0.00 0.00 0.00 66 1022.9
20260509231803 48 355 8.0 16.0 0.00 0.00 0.00 66 1022.9
20260509230903 48 357 8.0 16.0 0.00 0.00 0.00 66 1022.8
20260509230003 48 355 8.0 18.0 0.00 0.00 0.00 66 1022.7
20260509225403 48 356 8.0 13.0 0.00 0.00 0.00 65 1022.7
20260509224503 48 358 6.0 13.0 0.00 0.00 0.00 66 1022.7
20260509223603 49 4 6.0 11.0 0.00 0.00 0.00 66 1022.7
20260509222703 49 3 6.0 10.0 0.00 0.00 0.00 65 1022.7
20260509221803 49 4 6.0 11.0 0.00 0.00 0.00 65 1022.5
20260509220903 50 4 6.0 11.0 0.00 0.00 0.00 65 1022.6
20260509220003 50 2 7.0 13.0 0.00 0.00 0.00 64 1022.5
20260509215403 50 4 7.0 13.0 0.00 0.00 0.00 64 1022.5
20260509214503 50 5 6.0 14.0 0.00 0.00 0.00 64 1022.4
20260509213603 50 4 6.0 10.0 0.00 0.00 0.00 65 1022.5
20260509212703 51 3 6.0 12.0 0.00 0.00 0.00 65 1022.4
20260509211803 51 1 5.0 10.0 0.00 0.00 0.00 65 1022.4
20260509210903 51 3 5.0 8.0 0.00 0.00 0.00 65 1022.3
20260509210003 52 3 6.0 11.0 0.00 0.00 0.00 64 1022.2
20260509205403 52 359 6.0 9.0 0.00 0.00 0.00 64 1022.1
20260509204503 52 360 6.0 9.0 0.00 0.00 0.00 63 1021.9
20260509203603 53 2 5.0 11.0 0.00 0.00 0.00 61 1021.8
20260509202703 54 4 6.0 10.0 0.00 0.00 0.00 60 1021.7
20260509201803 54 7 5.0 9.0 0.00 0.00 0.00 60 1021.6
20260509200903 54 11 6.0 12.0 0.00 0.00 0.00 59 1021.6
20260509200003 55 6 5.0 12.0 0.00 0.00 0.00 59 1021.5
20260509195403 55 9 6.0 10.0 0.00 0.00 0.00 58 1021.4
20260509194503 56 11 5.0 9.0 0.00 0.00 0.00 58 1021.4
20260509193603 56 14 5.0 10.0 0.00 0.00 0.00 57 1021.3
20260509192703 56 23 6.0 13.0 0.00 0.00 0.00 57 1021.2
20260509191803 57 31 6.0 16.0 0.00 0.00 0.00 56 1021.1
20260509190903 57 24 5.0 14.0 0.00 0.00 0.00 57 1021.1
20260509190003 57 27 6.0 12.0 0.00 0.00 0.00 56 1021.0
20260509185403 57 26 6.0 13.0 0.00 0.00 0.00 56 1020.9
20260509184514 57 21 6.0 13.0 0.00 0.00 0.00 56 1020.9
20260509183603 57 19 7.0 15.0 0.00 0.00 0.00 55 1020.9
20260509182703 57 15 7.0 16.0 0.00 0.00 0.00 55 1020.8
20260509181803 57 16 7.0 15.0 0.00 0.00 0.00 55 1020.8
20260509180903 57 13 8.0 15.0 0.00 0.00 0.00 55 1020.6
20260509180003 58 8 7.0 15.0 0.00 0.00 0.00 57 1020.6
20260509175403 58 8 8.0 15.0 0.00 0.00 0.00 56 1020.5
20260509174503 58 12 8.0 17.0 0.00 0.00 0.00 55 1020.4
20260509173603 59 21 7.0 15.0 0.00 0.00 0.00 56 1020.5
20260509172703 59 25 6.0 12.0 0.00 0.00 0.00 56 1020.3
20260509171803 59 18 6.0 12.0 0.00 0.00 0.00 56 1020.4
20260509170903 59 21 6.0 16.0 0.00 0.00 0.00 55 1020.4
20260509170003 59 16 9.0 20.0 0.00 0.00 0.00 56 1020.2
20260509165403 59 14 8.0 16.0 0.00 0.00 0.00 55 1020.1
20260509164503 59 16 6.0 14.0 0.00 0.00 0.00 57 1020.2
20260509163603 59 40 7.0 16.0 0.00 0.00 0.00 56 1020.2
20260509162703 59 37 6.0 15.0 0.00 0.00 0.00 56 1020.1
20260509161803 60 22 6.0 13.0 0.00 0.00 0.00 57 1020.2
20260509160903 60 17 7.0 15.0 0.00 0.00 0.00 56 1020.1
20260509160003 60 18 9.0 19.0 0.00 0.00 0.00 55 1020.0
20260509155403 60 16 7.0 17.0 0.00 0.00 0.00 55 1020.1
20260509154503 60 18 8.0 17.0 0.00 0.00 0.00 55 1020.1
20260509153603 60 19 7.0 16.0 0.00 0.00 0.00 55 1020.1
20260509152703 60 38 8.0 17.0 0.00 0.00 0.00 56 1020.2
20260509151803 60 34 6.0 13.0 0.00 0.00 0.00 57 1020.2
20260509150903 60 12 7.0 15.0 0.00 0.00 0.00 57 1020.2
20260509150003 60 28 6.0 15.0 0.00 0.00 0.00 58 1020.1
20260509145403 60 26 7.0 19.0 0.00 0.00 0.00 57 1020.2
20260509144503 60 27 5.0 13.0 0.00 0.00 0.00 59 1020.1
20260509143603 59 27 6.0 13.0 0.00 0.00 0.00 57 1020.2
20260509142703 59 16 5.0 12.0 0.00 0.00 0.00 58 1020.2
20260509141803 59 23 6.0 13.0 0.00 0.00 0.00 59 1020.2
20260509140903 59 20 5.0 11.0 0.00 0.00 0.00 58 1020.4
20260509140003 59 29 8.0 16.0 0.00 0.00 0.00 59 1020.5
20260509135403 59 27 7.0 15.0 0.00 0.00 0.00 59 1020.4
20260509134503 59 27 6.0 13.0 0.00 0.00 0.00 58 1020.4
20260509133603 60 45 7.0 16.0 0.00 0.00 0.00 53 1020.3
20260509132703 59 39 6.0 14.0 0.00 0.00 0.00 54 1020.3
20260509131803 58 33 5.0 15.0 0.00 0.00 0.00 54 1020.5
20260509130903 58 27 6.0 15.0 0.00 0.00 0.00 55 1020.4
20260509130003 58 23 7.0 15.0 0.00 0.00 0.00 57 1020.4
20260509125403 57 12 7.0 14.0 0.00 0.00 0.00 56 1020.4
20260509124503 57 24 6.0 12.0 0.00 0.00 0.00 59 1020.3
20260509123603 57 7 6.0 13.0 0.00 0.00 0.00 58 1020.4
20260509122703 56 13 7.0 12.0 0.00 0.00 0.00 58 1020.4
20260509121803 57 13 7.0 14.0 0.00 0.00 0.00 58 1020.4
20260509120903 56 4 8.0 18.0 0.00 0.00 0.00 60 1020.4
20260509120003 56 14 7.0 15.0 0.00 0.00 0.00 61 1020.4
20260509115403 56 23 7.0 15.0 0.00 0.00 0.00 59 1020.4
20260509114503 56 18 7.0 16.0 0.00 0.00 0.00 57 1020.4
20260509113603 56 13 7.0 15.0 0.00 0.00 0.00 60 1020.4